Theta_e
299 300 300 300 299 299 300 300 302 302 302 304 305 306 306 306 306 304 301 306 299 292 294 297 300 297 298 297 292 296 295 297 297 294 295 293 292 295 292 293 291 290 287 287 290 287 285 302 301 294 300 304 303 301
300 300 301 300 299 299 301 302 302 303 304 304 304 306 307 306 305 306 299 305 306 295 295 303 303 305 305 303 300 299 297 297 298 297 297 298 293 297 293 287 298 290 294 293 293 293 302 304 303 306 305 302 300 299
300 300 301 301 300 300 302 302 302 303 304 304 305 306 306 306 306 305 302 303 302 296 297 298 298 305 309 308 308 297 302 302 301 302 300 298 291 297 292 292 293 298 301 298 297 298 299 300 302 302 302 300 298 298
300 301 301 302 301 301 301 302 302 303 303 305 306 306 306 306 306 306 302 304 300 297 287 293 304 301 308 307 307 305 305 305 305 303 298 298 295 297 295 295 294 298 300 298 295 294 296 297 300 298 296 298 297 297
300 301 301 301 300 300 301 302 302 303 304 305 306 307 306 306 306 307 309 308 306 296 289 291 299 305 307 307 304 304 304 303 302 299 298 293 297 297 298 299 294 301 298 296 293 301 299 297 297 296 296 296 296 295
300 301 301 302 302 302 302 302 303 304 304 305 306 307 307 306 307 306 295 304 306 304 294 287 299 300 304 305 304 303 303 302 300 297 295 297 297 297 295 293 296 299 303 304 302 305 303 298 297 299 297 297 296 296
300 301 301 302 302 303 302 303 303 303 304 305 305 306 306 306 308 299 296 302 305 305 295 291 290 298 303 302 302 301 303 300 299 297 295 296 296 297 296 292 296 301 303 304 305 302 298 298 296 298 298 297 296 295
300 300 301 302 302 302 303 302 303 303 304 305 306 306 306 303 303 300 304 306 305 300 298 291 289 293 299 296 296 301 298 299 296 295 297 293 296 298 292 296 296 298 299 299 300 303 302 299 298 297 298 296 294 294
299 300 301 301 302 302 302 303 303 304 304 305 306 306 307 304 297 300 306 306 305 301 293 293 290 288 297 295 297 299 301 292 299 295 295 296 291 288 293 296 294 296 297 298 301 301 298 297 295 295 295 294 294 294
299 300 301 301 302 302 302 303 303 304 304 305 306 301 294 302 305 305 303 299 299 301 300 293 295 290 296 295 294 295 298 293 289 291 297 290 290 296 298 300 299 299 298 301 298 296 296 295 294 294 294 295 295 294
300 300 301 301 301 302 302 303 304 303 305 303 298 297 304 305 303 300 293 293 295 292 296 295 294 293 301 293 292 294 292 294 288 290 289 289 289 296 300 300 300 301 300 300 301 300 299 296 294 294 295 295 295 295
300 300 301 301 301 302 304 304 303 304 302 301 299 302 303 299 297 290 291 293 292 288 295 293 294 294 298 300 293 294 290 293 283 293 287 286 293 296 297 295 296 298 298 299 298 296 295 296 296 297 296 296 295 296
299 300 301 302 302 303 304 304 305 304 305 305 299 295 295 294 288 285 284 288 288 293 296 296 293 296 298 299 291 291 285 287 295 289 289 290 294 295 296 297 297 299 297 295 295 296 296 296 297 297 296 295 296 294
300 300 302 302 302 303 304 305 304 304 303 295 291 286 288 287 289 289 289 290 295 294 294 296 294 293 293 291 290 285 289 291 286 285 285 290 292 296 299 300 300 297 297 296 296 296 296 296 296 297 296 295 295 293
300 301 302 302 302 303 304 304 304 306 299 291 292 285 288 292 292 292 293 292 293 296 295 294 293 291 289 288 289 289 285 284 287 287 288 290 294 296 296 298 297 297 296 296 297 296 296 296 296 295 295 295 295 294
300 301 301 301 302 303 303 305 307 306 299 294 292 289 293 291 290 292 292 294 297 294 296 294 290 287 287 289 285 284 284 285 286 288 291 295 296 296 297 298 298 297 297 297 296 296 296 296 295 294 293 293 294 293
300 301 300 301 302 302 302 303 303 295 293 290 290 292 290 290 290 292 295 298 300 294 292 292 287 285 290 287 286 290 287 287 290 293 295 297 298 298 298 298 297 296 296 296 297 297 296 297 295 293 292 292 293 292
298 301 302 301 302 303 304 302 296 293 289 291 287 289 289 291 292 296 299 297 296 293 293 291 295 287 287 285 287 288 290 294 296 296 298 299 299 298 297 296 296 296 296 296 296 296 296 296 295 293 295 293 293 293
300 302 302 301 301 301 296 297 298 289 293 296 296 297 295 298 302 302 299 298 298 298 295 292 288 287 290 293 292 293 295 295 295 296 297 298 298 297 297 297 297 296 296 296 296 295 295 295 294 294 292 292 290 291
301 302 301 301 302 299 292 296 300 292 293 296 297 297 299 301 302 302 300 299 298 294 290 289 291 297 296 297 298 298 298 298 297 294 294 295 296 296 296 296 295 296 295 295 294 292 294 293 294 293 292 290 290 289
301 304 303 303 302 300 296 296 293 296 296 296 300 298 297 301 298 299 299 301 297 291 291 296 299 300 301 301 301 300 299 298 297 295 294 293 295 295 295 296 296 295 294 294 293 292 292 292 292 292 291 290 289 289
300 302 301 302 297 295 294 298 295 297 296 297 297 299 296 296 297 297 300 298 293 294 297 300 300 300 299 298 299 300 299 298 298 295 293 293 294 293 294 295 295 294 294 294 294 292 292 292 292 291 290 289 289 288
300 301 298 296 291 290 290 300 292 294 291 294 297 293 295 296 298 301 296 298 296 299 303 301 301 302 299 299 299 299 298 296 295 295 296 296 296 296 295 295 296 295 293 293 294 293 291 288 289 291 289 290 290 289
300 296 291 290 290 286 292 290 296 294 295 293 292 290 293 295 298 294 290 296 298 301 302 299 300 298 299 298 296 297 297 297 297 297 298 296 295 295 296 295 296 296 295 294 293 292 291 290 288 290 289 288 289 288
290 289 290 286 292 288 286 287 288 291 289 291 290 291 293 298 289 289 289 295 296 298 301 300 298 298 296 296 297 297 299 298 296 295 297 297 296 295 294 294 294 294 294 292 291 290 290 290 290 289 288 288 287 286
284 289 287 288 289 287 287 286 288 289 290 289 291 295 296 291 287 287 292 296 297 299 298 298 297 297 296 297 296 296 297 300 299 296 296 297 296 294 293 291 290 290 294 293 291 289 289 289 288 286 286 284 281 286
284 286 292 296 294 292 291 294 295 291 288 288 290 290 290 285 287 292 296 298 299 302 302 302 301 298 297 297 299 300 300 300 300 298 298 297 298 298 297 294 291 291 293 292 291 290 288 287 287 286 286 286 286 286
289 290 287 292 292 295 290 291 290 289 289 291 289 287 288 289 289 294 294 298 298 303 302 305 304 303 300 300 299 299 298 298 297 296 295 294 295 294 294 293 292 285 291 292 291 290 289 288 287 286 285 285 286 287
289 293 293 290 291 293 293 291 291 295 297 295 291 289 290 296 301 299 296 297 299 300 301 298 298 301 299 299 299 299 298 296 294 292 291 290 289 290 292 291 291 291 291 289 281 286 287 287 286 286 285 286 286 287
291 295 292 290 288 288 294 297 295 297 298 298 297 296 296 297 301 304 302 297 297 299 301 300 298 299 297 297 295 295 297 298 298 296 294 292 292 292 292 292 291 291 290 289 287 285 280 284 282 285 285 285 286 286
296 294 292 291 288 292 297 299 299 299 297 295 296 294 293 296 300 303 303 301 298 297 301 298 297 298 298 297 296 295 294 297 298 298 298 297 293 293 293 292 292 291 290 289 287 286 285 285 285 284 283 283 282 283
294 292 291 289 290 294 295 295 295 294 294 292 292 293 293 293 292 300 302 300 295 293 293 298 298 298 299 300 300 300 292 298 298 296 295 294 293 293 293 292 291 290 289 288 287 286 285 284 284 283 282 281 281 281
293 294 291 290 289 288 291 290 290 290 289 289 290 291 292 291 290 299 303 302 302 298 296 297 301 302 300 300 299 297 294 298 292 286 286 287 288 289 291 291 290 290 288 287 286 285 284 283 282 281 280 278 278 278
Wind_Speed
19 20 20 20 20 20 20 21 22 21 21 22 25 24 22 19 15 4 5 6 2 3 8 5 10 7 8 2 1 4 3 3 3 1 1 2 2 4 5 6 10 6 6 3 4 3 4 5 6 2 8 9 9 9
19 20 19 17 19 19 19 20 20 21 21 22 25 27 22 15 12 8 3 3 2 3 5 9 11 11 11 8 6 1 3 3 5 2 2 1 2 1 9 5 7 5 1 5 1 5 10 11 13 9 9 10 9 8
20 21 20 17 17 18 18 19 20 21 21 22 25 17 13 13 12 6 3 2 3 2 3 3 3 6 6 6 4 5 2 4 4 5 2 3 4 3 2 5 4 4 4 5 7 11 13 13 13 12 12 11 9 9
21 22 21 19 17 18 18 19 20 21 21 22 22 16 14 13 12 10 2 2 2 2 2 2 7 3 7 0 3 3 3 4 2 3 3 1 2 4 3 4 4 1 5 7 15 13 13 10 12 11 11 10 10 9
22 21 20 18 18 18 19 20 20 20 20 22 22 18 14 14 14 8 5 2 1 1 2 4 6 9 6 7 8 4 3 1 1 1 1 3 2 2 3 1 4 5 6 5 3 16 7 13 11 10 10 10 9 9
20 19 18 18 16 16 19 20 20 19 21 23 22 20 16 15 14 3 1 1 3 1 1 2 2 5 9 8 9 9 5 4 3 3 3 3 3 4 1 2 4 4 5 3 8 9 16 17 13 11 12 11 9 10
19 19 19 21 20 19 18 18 20 21 22 23 22 19 12 10 4 2 3 4 7 1 1 0 2 3 8 3 3 5 6 4 4 2 3 2 3 3 1 2 3 6 7 12 17 18 18 17 13 13 12 11 10 9
19 20 20 20 19 19 18 20 21 21 22 22 20 14 6 5 2 1 3 5 4 1 1 1 2 1 6 4 2 4 2 2 4 2 1 1 3 2 2 9 6 9 12 14 6 7 14 16 14 12 9 8 8 9
19 20 21 20 19 19 19 20 22 21 23 22 14 8 3 2 2 2 8 7 2 2 2 1 2 3 4 2 3 1 1 2 2 1 2 1 2 2 5 7 10 12 8 9 13 16 17 14 13 11 9 8 8 8
19 20 21 20 19 19 20 20 21 22 24 15 6 2 2 2 9 9 4 2 1 1 2 2 3 2 1 2 1 1 2 2 2 2 1 1 2 5 4 3 15 7 10 12 15 14 13 13 11 9 9 9 8 8
20 20 20 20 20 20 20 20 18 19 9 4 5 3 5 7 3 1 2 2 1 1 3 3 4 2 3 2 3 3 2 1 2 3 1 0 1 5 8 9 10 14 13 11 5 11 10 11 10 10 9 8 7 8
20 20 20 19 20 20 20 16 11 7 4 6 4 5 4 3 1 2 1 2 0 3 2 1 3 2 1 3 1 1 2 2 3 2 1 2 4 10 13 12 12 11 8 11 13 14 13 12 10 9 8 7 8 8
19 20 19 18 18 19 16 14 12 9 8 2 3 3 2 1 2 4 3 2 2 4 2 0 1 2 2 2 1 1 2 1 2 3 1 3 3 10 13 13 14 12 10 11 14 14 13 13 11 9 9 8 8 9
19 19 18 17 14 16 15 11 9 6 3 3 4 2 3 2 5 4 5 4 3 2 3 0 3 3 2 1 1 2 2 2 3 2 3 3 7 6 14 13 12 12 13 13 13 12 11 11 10 10 9 7 7 8
19 19 19 6 13 16 13 11 11 3 3 3 3 3 3 1 3 3 3 3 2 3 2 1 2 1 1 2 2 2 2 4 2 3 2 6 10 9 11 11 12 12 11 11 10 9 10 10 11 10 8 8 7 8
20 17 1 9 13 15 10 9 3 1 2 2 2 3 3 3 2 2 2 2 3 1 1 2 1 3 2 2 2 3 3 2 3 3 7 8 10 9 11 11 11 11 10 9 9 10 9 9 10 10 8 8 8 9
17 3 6 11 14 15 6 4 2 2 4 3 1 2 3 4 3 3 2 1 3 4 1 1 3 2 1 2 3 1 3 2 7 8 7 10 11 12 11 11 11 10 10 9 9 9 9 10 10 8 8 8 8 8
4 4 10 10 11 5 2 2 2 2 1 1 3 2 2 3 3 4 0 3 1 1 2 2 3 2 1 3 2 2 2 7 8 7 8 10 11 12 11 11 11 10 10 9 11 10 8 7 7 6 7 6 6 6
9 9 9 8 7 4 3 1 3 3 1 3 4 2 3 3 3 1 3 0 2 1 2 2 2 1 1 4 7 9 8 8 9 9 9 11 11 11 11 10 10 10 10 9 8 7 7 8 7 5 4 4 6 6
11 7 6 6 4 2 3 1 1 3 3 3 3 4 4 2 2 1 0 2 2 3 1 1 0 2 5 7 7 8 8 9 9 10 10 9 9 11 10 8 8 9 9 9 8 6 7 7 6 6 6 6 5 6
5 1 2 3 2 3 3 2 3 3 4 3 2 4 3 0 1 2 3 3 2 2 1 2 3 6 5 6 7 7 7 7 8 8 10 9 8 8 8 8 7 6 6 5 6 6 5 6 6 5 5 6 5 6
2 4 1 2 2 2 3 2 4 4 4 4 4 3 3 3 3 3 4 0 2 1 1 1 4 6 8 9 7 6 9 9 10 9 10 8 8 7 6 6 6 6 5 5 5 6 6 5 5 5 5 5 4 6
5 4 1 2 2 1 4 2 4 3 4 2 3 2 1 1 3 2 0 1 3 1 3 3 5 7 10 10 10 9 10 11 9 9 7 7 7 7 6 5 5 5 6 5 5 5 6 6 4 4 5 3 4 5
3 3 2 2 3 3 2 3 2 3 3 2 2 2 0 2 2 1 1 1 3 1 2 7 7 8 8 10 8 8 8 7 7 6 6 7 7 6 5 5 5 5 5 5 6 6 5 6 3 4 4 4 4 4
3 3 3 4 3 3 3 3 3 3 4 2 2 2 0 0 1 1 1 2 2 2 2 6 6 7 8 8 7 7 6 8 7 7 5 6 7 7 6 5 6 5 5 5 6 5 5 4 4 4 4 4 4 4
4 5 5 4 3 4 3 3 4 2 3 3 2 2 1 1 2 2 1 1 3 1 3 4 5 7 8 8 8 8 7 4 6 6 6 6 5 6 7 6 6 5 3 4 5 6 6 5 5 5 7 7 1 1
4 5 4 4 2 1 4 4 3 2 2 2 2 2 1 2 1 3 1 0 1 2 3 4 5 6 8 8 8 7 6 5 4 7 7 6 5 4 3 4 5 6 5 5 6 6 6 6 6 5 5 5 5 4
4 3 6 5 4 4 5 4 1 2 1 1 1 2 2 3 2 2 1 2 2 1 0 1 3 5 8 8 8 8 8 9 10 10 9 8 6 6 7 8 8 7 6 5 6 6 5 5 6 6 5 5 5 4
4 3 4 6 5 5 4 3 1 2 1 1 2 1 1 2 1 1 2 2 4 3 4 5 5 6 7 7 7 7 8 9 13 15 12 8 8 6 7 8 8 7 7 8 12 9 7 5 6 6 5 5 4 4
4 5 4 2 3 3 1 1 1 2 1 2 2 2 3 2 2 2 2 3 3 5 4 4 6 7 9 9 9 8 6 6 6 6 7 8 8 9 8 8 8 7 7 7 8 9 6 8 7 6 5 4 4 2
2 5 4 3 2 2 1 1 1 1 2 2 2 4 3 3 3 3 4 3 2 4 7 6 5 5 7 8 9 9 8 6 7 7 6 9 11 10 9 8 7 7 6 7 7 6 7 6 5 5 5 4 4 1
5 6 4 4 2 2 2 2 2 2 2 3 2 2 2 2 3 2 3 5 3 1 5 7 6 5 5 5 6 4 3 8 8 9 14 11 11 11 10 8 8 7 7 7 6 6 6 5 5 5 4 4 4 3
3 3 2 2 2 2 3 2 3 3 2 2 2 3 3 3 4 1 3 4 4 5 3 2 5 4 6 6 7 7 8 8 10 8 9 10 11 10 9 8 8 7 8 7 7 7 7 8 6 6 6 5 5 4
Wind_Direction
325 325 330 331 333 333 325 326 328 329 331 331 327 328 325 319 322 344 276 263 266 272 288 290 304 329 316 342 20 320 250 8 274 208 176 86 45 87 78 128 142 155 147 164 185 174 158 150 171 306 100 98 85 65
325 328 327 328 331 321 320 324 330 328 327 328 328 326 320 327 326 334 276 344 236 215 269 303 294 292 299 326 324 202 354 6 21 35 9 78 93 148 152 120 156 156 116 157 108 86 95 77 84 90 100 95 68 58
325 325 322 320 318 321 327 330 331 330 329 329 329 336 348 338 332 343 286 294 295 274 275 292 332 353 345 313 278 316 113 8 76 329 45 42 87 288 122 84 119 119 155 119 145 117 104 93 88 86 89 89 80 66
323 323 324 324 320 323 329 330 330 327 330 329 331 329 335 339 339 331 255 217 240 292 300 332 7 344 338 272 165 343 49 74 31 320 34 66 97 330 56 102 99 9 161 130 93 107 106 111 97 102 100 94 85 72
322 324 326 329 329 326 325 327 329 329 329 328 331 337 333 328 324 314 292 279 234 290 317 341 301 356 53 103 76 99 100 350 336 144 45 64 66 263 69 225 126 160 160 171 182 163 136 133 113 128 112 91 81 62
325 326 332 336 329 320 321 324 326 327 330 327 329 328 323 323 321 327 350 358 18 247 348 7 334 13 61 71 70 55 42 37 46 18 55 92 58 301 105 143 80 149 86 35 106 127 114 127 144 119 104 95 82 68
327 329 336 337 333 330 330 324 331 330 327 326 325 322 321 327 328 12 355 329 334 289 297 286 72 330 344 357 49 50 47 46 21 47 39 44 93 311 286 111 107 77 99 105 109 119 124 136 129 117 106 102 89 75
325 330 332 334 333 329 327 331 331 327 323 323 321 320 338 0 354 7 348 340 315 299 314 7 78 151 7 347 71 346 66 57 29 64 266 73 148 212 219 115 78 107 114 127 145 145 126 120 126 123 118 103 84 65
326 327 326 327 326 329 331 330 328 326 323 321 315 302 210 60 0 332 306 316 291 316 358 37 353 75 162 8 347 2 296 80 40 54 85 280 121 218 78 154 129 150 141 146 113 119 132 131 126 121 108 89 80 65
324 323 324 326 327 328 326 325 327 325 321 314 290 8 25 345 311 284 198 239 214 12 355 30 107 94 291 162 54 292 4 65 164 78 124 354 239 128 99 124 140 143 157 137 133 139 138 135 132 117 95 81 74 72
321 322 323 326 328 330 326 321 322 324 301 354 355 353 342 312 261 272 332 326 25 114 23 45 8 55 43 345 53 70 320 216 237 83 299 209 168 122 130 95 101 127 143 155 168 131 131 131 131 125 107 87 73 71
321 323 325 324 327 329 327 327 337 320 344 316 292 277 270 270 268 286 28 149 338 59 141 8 72 7 23 357 43 201 317 272 39 83 249 195 67 94 99 108 98 85 76 108 116 115 112 113 119 114 107 84 72 75
319 324 323 324 327 327 331 331 320 306 294 252 237 270 331 310 315 358 36 68 64 13 57 186 126 337 173 90 68 297 284 342 141 213 158 49 35 132 133 120 127 131 125 119 117 115 109 110 110 106 100 81 84 81
316 324 324 322 324 334 336 350 4 333 290 337 333 350 344 26 30 6 344 346 36 320 296 72 97 356 20 236 57 247 176 242 245 268 90 84 107 130 136 142 138 135 135 130 127 123 119 110 105 100 88 83 85 88
320 323 320 317 330 329 326 327 317 300 306 327 296 357 22 59 276 279 277 258 212 269 196 183 144 278 257 219 224 286 239 228 276 54 75 111 124 131 120 139 127 125 126 126 129 127 114 111 108 102 91 85 84 85
324 317 299 333 329 329 324 309 269 291 250 282 254 297 16 291 338 343 313 271 125 93 40 271 203 230 220 252 220 221 269 317 72 83 124 139 123 141 127 121 125 123 119 118 117 121 119 119 114 107 100 87 78 74
318 273 331 323 318 316 312 289 288 330 348 324 318 358 298 278 272 282 306 309 124 187 199 212 261 350 5 236 224 326 4 46 117 113 130 163 148 124 120 118 119 116 112 111 117 116 107 113 123 125 103 87 81 77
247 290 309 319 327 309 280 291 297 279 292 273 293 256 214 244 266 252 168 58 320 10 289 323 324 281 283 335 62 84 105 118 127 141 110 115 118 119 118 118 120 115 108 105 111 115 120 127 128 112 107 109 107 94
298 297 283 297 318 302 321 288 305 323 321 289 254 231 221 252 211 329 91 183 315 336 321 8 360 335 4 86 116 123 133 130 119 113 111 114 115 111 112 112 113 110 105 103 103 90 80 69 85 97 81 55 57 42
301 306 267 285 296 289 281 232 274 271 286 8 302 314 302 355 360 333 229 202 236 154 176 212 335 60 94 126 127 118 110 121 130 126 121 119 119 119 112 114 105 113 110 109 105 120 110 100 88 73 55 46 57 58
280 204 270 249 231 265 298 310 289 309 321 280 315 321 305 257 261 296 359 13 54 10 17 353 79 89 97 112 105 118 133 139 137 131 130 129 128 117 114 117 124 119 118 111 103 105 85 87 93 85 76 69 72 77
295 293 291 241 259 242 265 223 291 309 265 307 295 307 291 326 360 25 332 23 76 325 358 3 91 123 127 127 124 110 110 115 106 105 99 121 133 129 128 124 124 119 116 107 102 97 97 94 83 81 90 105 80 49
288 224 264 260 269 213 267 205 252 235 264 308 292 261 244 358 28 297 299 54 106 248 305 82 112 115 110 117 119 123 128 131 128 127 145 124 123 123 123 116 115 121 119 102 102 102 93 98 98 95 113 109 91 106
245 255 246 244 219 273 294 255 236 269 264 251 260 272 6 18 5 346 18 75 77 144 109 134 133 129 127 137 135 133 147 131 122 119 124 133 127 118 112 104 89 81 95 111 111 120 123 96 150 108 84 84 77 76
239 224 202 238 231 238 248 264 247 254 244 247 267 236 38 331 276 242 180 113 122 184 125 157 157 154 143 132 130 125 152 151 142 130 129 122 120 124 116 101 95 101 123 133 136 134 124 120 105 100 97 82 85 84
229 194 207 204 202 221 210 270 247 281 301 259 210 90 130 259 248 209 100 17 119 166 118 174 166 138 139 142 140 145 146 137 131 128 132 142 144 142 141 142 137 130 129 132 142 139 131 121 109 113 116 115 48 79
237 224 210 225 256 259 258 246 250 261 227 307 3 322 264 242 210 84 44 240 138 199 109 196 190 161 147 139 122 119 129 134 113 115 121 115 101 108 131 136 118 116 135 130 130 135 129 130 125 116 111 98 82 64
252 247 227 179 210 236 285 293 234 156 177 148 250 255 296 345 44 66 324 329 302 189 219 138 177 189 145 139 136 135 126 117 116 114 106 94 88 89 93 92 97 72 104 95 112 122 122 120 119 119 114 106 99 82
229 219 221 229 222 223 221 252 310 76 85 245 284 296 226 234 45 161 184 257 285 204 189 146 126 126 127 137 137 143 149 157 157 160 158 143 145 126 124 127 138 128 121 105 49 53 76 91 106 112 111 105 104 108
216 191 221 241 208 238 220 187 149 130 319 341 324 281 245 226 219 260 201 187 236 196 167 144 159 168 153 153 146 149 165 178 174 177 169 170 153 148 145 141 139 135 136 131 123 116 121 128 135 139 147 142 118 117
167 192 209 139 241 247 236 178 187 196 215 240 248 266 285 324 299 246 219 200 196 263 187 161 169 173 171 162 161 162 161 175 158 142 134 134 141 148 146 142 137 137 138 140 146 149 147 160 137 132 132 119 110 135
191 209 192 203 195 182 214 241 262 257 210 223 215 210 230 242 258 227 194 158 158 199 251 204 184 162 174 163 160 154 141 146 146 137 138 141 141 142 141 137 139 141 144 141 142 143 149 129 132 144 133 120 104 84
187 183 133 149 159 229 200 226 247 250 229 239 230 211 221 248 261 171 156 230 213 183 189 205 186 200 163 148 124 118 126 127 111 99 102 114 128 134 139 140 140 144 144 142 141 139 130 125 117 115 114 124 126 116